星链-37666(STARLINK-37666)

导读

STARLINK-37666(NORAD编号69046)是SpaceX星链(Starlink)星座中的一员,星链项目旨在构建全球覆盖的低轨卫星互联网系统。该卫星运行于近地轨道,作为SpaceX大规模卫星互联网组网计划的组成部分,承担着为全球用户提供宽带互联网接入服务的任务。 2026年SpaceX启动降低四千颗星链卫星轨道高度的计划,将原550公里轨道降至480公里,这一调整包含STARLINK-37666在内,目的是减少卫星故障后的轨道停留时间,降低碰撞风险与太空碎片产生概率,提升近地轨道运行安全,缓解公众对近地轨道拥挤引发凯斯勒现象的担忧。

Basic Information
目录编号:
69046
目录名称:
STARLINK-37666
国际标识:
2026-101X
轨道中心:
EARTH
卫星名称:
星链-37666
卫星全名:
星链-37666(STARLINK-37666)
卫星状态:
在轨 (已飞行83 天)
发射日期:
2026-05-06 UTC
国别 :
美国 (US)
星等 :
--
Orbit Information
数据来源 国际轨道数据 AOE轨道数据
星历时间 2026-07-27T21:21:45+0800
12小时前
查看轨道信息
2026-07-28T00:00:00+0800
9小时前
查看轨道信息
半长轴 6843.679km 6843.679km
偏心率 0.0001774 0.0001576
轨道倾角 97.286° 97.288°
近地点辐角 91.716° 115.898°
升交点赤经 62.896° 63.005°
平近点角 268.429° 130.476°
近地点 464.327km 464.463km
远地点 466.757km 466.621km
周期 93.906分钟 93.906分钟
每日圈数 15.334454 15.334456
Detailed Information
固有亮度:
5
最大亮度:
2.5
卫星平台:
Starlink V1.0
覆盖范围:
全球
运营商:
太空探索技术公司
运营商所在国:
美国
制造商(研发单位):
太空探索技术公司
制造商所在国:
美国
使用方式:
暂无
Satellite Introduction
Starlink 计划是 SpaceX 推出的全球卫星互联网项目,通过发射低轨道卫星,为全球尤其是偏远地区提供高速、低延迟的互联网服务。自 2019 年起,Starlink 已部署数千颗卫星,旨在缩小全球数字鸿沟,推动互联网普及。该项目还为军事、航空等行业提供通信支持,带来广泛经济效益。
2D Orbit Map
3D Orbit Map
Orbit Altitude Analysis Chart
Orbit Inclination Analysis Chart
Orbit Comprehensive Analysis Chart
View Comprehensive Chart